Time,TemperatureF,DewpointF,PressureIn,WindDirection,WindDirectionDegrees,WindSpeedMPH,WindSpeedGustMPH,Humidity,HourlyPrecipIn,Conditions,Clouds,dailyrainin,SoftwareType,DateUTC
2013-02-04 00:00:00,24.0,4.0,-100.00,WNW,289,3.0,10.0,41,-99.99,,,-99.99,,2013-02-04 07:00:00,
2013-02-04 00:32:00,24.0,4.0,-100.00,WNW,289,3.0,10.0,41,-99.99,,,-99.99,,2013-02-04 07:32:00,
2013-02-04 00:42:00,24.0,4.0,-100.00,WNW,289,3.0,10.0,41,-99.99,,,-99.99,,2013-02-04 07:42:00,
2013-02-04 00:52:00,24.0,4.0,-100.00,WNW,289,3.0,10.0,41,-99.99,,,-99.99,,2013-02-04 07:52:00,
2013-02-04 02:00:00,26.0,6.0,-100.00,WNW,302,7.0,15.0,41,-99.99,,,-99.99,,2013-02-04 09:00:00,
2013-02-04 02:32:00,26.0,6.0,-100.00,WNW,302,7.0,15.0,41,-99.99,,,-99.99,,2013-02-04 09:32:00,
2013-02-04 02:42:00,26.0,6.0,-100.00,WNW,302,7.0,15.0,41,-99.99,,,-99.99,,2013-02-04 09:42:00,
2013-02-04 02:52:00,26.0,6.0,-100.00,WNW,302,7.0,15.0,41,-99.99,,,-99.99,,2013-02-04 09:52:00,
2013-02-04 04:00:00,24.0,8.0,-100.00,WNW,285,5.0,13.0,48,-99.99,,,-99.99,,2013-02-04 11:00:00,
2013-02-04 04:33:00,24.0,8.0,-100.00,WNW,285,5.0,13.0,48,-99.99,,,-99.99,,2013-02-04 11:33:00,
2013-02-04 04:42:00,24.0,8.0,-100.00,WNW,285,5.0,13.0,48,-99.99,,,-99.99,,2013-02-04 11:42:00,
2013-02-04 04:52:00,24.0,8.0,-100.00,WNW,285,5.0,13.0,48,-99.99,,,-99.99,,2013-02-04 11:52:00,
2013-02-04 06:00:00,23.0,6.0,-100.00,West,264,4.0,13.0,48,-99.99,,,-99.99,,2013-02-04 13:00:00,
2013-02-04 06:33:00,23.0,6.0,-100.00,West,264,4.0,13.0,48,-99.99,,,-99.99,,2013-02-04 13:33:00,
2013-02-04 06:42:00,23.0,6.0,-100.00,West,264,4.0,13.0,48,-99.99,,,-99.99,,2013-02-04 13:42:00,
2013-02-04 06:52:00,23.0,6.0,-100.00,West,264,4.0,13.0,48,-99.99,,,-99.99,,2013-02-04 13:52:00,
2013-02-04 08:00:00,22.0,9.0,-100.00,West,281,5.0,14.0,55,-99.99,,,-99.99,,2013-02-04 15:00:00,
2013-02-04 08:33:00,22.0,9.0,-100.00,West,281,5.0,14.0,55,-99.99,,,-99.99,,2013-02-04 15:33:00,
2013-02-04 08:43:00,22.0,9.0,-100.00,West,281,5.0,14.0,55,-99.99,,,-99.99,,2013-02-04 15:43:00,
2013-02-04 08:52:00,22.0,9.0,-100.00,West,281,5.0,14.0,55,-99.99,,,-99.99,,2013-02-04 15:52:00,
2013-02-04 12:00:00,27.0,10.0,-100.00,WNW,303,6.0,14.0,47,-99.99,,,-99.99,,2013-02-04 19:00:00,
2013-02-04 12:32:00,27.0,10.0,-100.00,WNW,303,6.0,14.0,47,-99.99,,,-99.99,,2013-02-04 19:32:00,
2013-02-04 12:42:00,27.0,10.0,-100.00,WNW,303,6.0,14.0,47,-99.99,,,-99.99,,2013-02-04 19:42:00,
2013-02-04 12:52:00,27.0,10.0,-100.00,WNW,303,6.0,14.0,47,-99.99,,,-99.99,,2013-02-04 19:52:00,
2013-02-04 14:00:00,29.0,11.0,-100.00,WNW,295,5.0,14.0,46,-99.99,,,-99.99,,2013-02-04 21:00:00,
2013-02-04 14:32:00,29.0,11.0,-100.00,WNW,295,5.0,14.0,46,-99.99,,,-99.99,,2013-02-04 21:32:00,
2013-02-04 14:43:00,29.0,11.0,-100.00,WNW,295,5.0,14.0,46,-99.99,,,-99.99,,2013-02-04 21:43:00,
2013-02-04 14:52:00,29.0,11.0,-100.00,WNW,295,5.0,14.0,46,-99.99,,,-99.99,,2013-02-04 21:52:00,
2013-02-04 16:00:00,28.0,11.0,-100.00,WNW,291,6.0,15.0,47,-99.99,,,-99.99,,2013-02-04 23:00:00,
2013-02-04 16:32:00,28.0,11.0,-100.00,WNW,291,6.0,15.0,47,-99.99,,,-99.99,,2013-02-04 23:32:00,
2013-02-04 16:42:00,28.0,11.0,-100.00,WNW,291,6.0,15.0,47,-99.99,,,-99.99,,2013-02-04 23:42:00,
2013-02-04 16:52:00,28.0,11.0,-100.00,WNW,291,6.0,15.0,47,-99.99,,,-99.99,,2013-02-04 23:52:00,
2013-02-04 18:00:00,26.0,9.0,-100.00,WSW,254,4.0,11.0,49,-99.99,,,-99.99,,2013-02-05 01:00:00,
2013-02-04 18:32:00,26.0,9.0,-100.00,WSW,254,4.0,11.0,49,-99.99,,,-99.99,,2013-02-05 01:32:00,
2013-02-04 18:42:00,26.0,9.0,-100.00,WSW,254,4.0,11.0,49,-99.99,,,-99.99,,2013-02-05 01:42:00,
2013-02-04 18:52:00,26.0,9.0,-100.00,WSW,254,4.0,11.0,49,-99.99,,,-99.99,,2013-02-05 01:52:00,
2013-02-04 20:00:00,26.0,15.0,-100.00,WNW,293,4.0,11.0,62,-99.99,,,-99.99,,2013-02-05 03:00:00,
2013-02-04 20:32:00,26.0,15.0,-100.00,WNW,293,4.0,11.0,62,-99.99,,,-99.99,,2013-02-05 03:32:00,
2013-02-04 20:42:00,26.0,15.0,-100.00,WNW,293,4.0,11.0,62,-99.99,,,-99.99,,2013-02-05 03:42:00,
2013-02-04 20:52:00,26.0,15.0,-100.00,WNW,293,4.0,11.0,62,-99.99,,,-99.99,,2013-02-05 03:52:00,
2013-02-04 22:00:00,25.0,12.0,-100.00,WNW,291,3.0,13.0,57,-99.99,,,-99.99,,2013-02-05 05:00:00,
2013-02-04 22:32:00,25.0,12.0,-100.00,WNW,291,3.0,13.0,57,-99.99,,,-99.99,,2013-02-05 05:32:00,
2013-02-04 22:42:00,25.0,12.0,-100.00,WNW,291,3.0,13.0,57,-99.99,,,-99.99,,2013-02-05 05:42:00,
2013-02-04 22:52:00,25.0,12.0,-100.00,WNW,291,3.0,13.0,57,-99.99,,,-99.99,,2013-02-05 05:52:00,